Location: Broek
(53.2737°N, 5.9967°E)
Time: 22:37:45
(UTC+00:00)

SPOT 1/Viking Rocket - Pass Details

Date: 10 October 2024
Orbit: 774 x 790 km, 98.3° (Epoch: 09 November)

Event Time Altitude Azimuth Distance (km) Brightness Sun altitude
Rises 18:22:26 0° 159° (SSE) 3,245 6.5 -14.5°
Reaches altitude 10° 18:24:44 10° 158° (SSE) 2,321 5.7 -14.9°
Maximum altitude 18:29:51 81° 72° (ENE) 793 3.4 -15.6°
Drops below altitude 10° 18:35:01 10° 347° (NNW) 2,337 6.3 -16.4°
Sets 18:37:20 0° 346° (NNW) 3,269 7.1 -16.7°
